Flag Weather past 2 weeks in Kingstown, Saint Vincent and Grenadines

Now
86 °F

Passing clouds.


Feels Like: 97 °F
Forecast: 80 / 85 °F
Wind: 8 mph from East

Location: Arnos Vale

Current Time: Nov 28, 2014 at 10:04:40 AM

Latest Report: Nov 28, 2014 at 9:00 AM


Visibility: N/A

Pressure: 29.98 "Hg

Humidity: 75%

Dew point: 77 °F

Location of KingstownLocation

Historic Weather in Kingstown — Graph

°F

Kingstown temperature yesterday

Maximum temperature yesterday: 84 °F (at 10:00 AM)
Minimum temperature yesterday: 77 °F (at 7:00 AM)
Average temperature yesterday: 81 °F

Past Weeks' High & Low Weather Summary

 TemperatureHumidityPressure
High88 °F (Nov 13, 11:00 AM)100% (Nov 20, 9:00 PM)30.04 "Hg (Nov 20, 9:00 PM)
Low75 °F (Nov 20, 9:00 PM)59% (Nov 23, 11:00 AM)29.86 "Hg (Nov 13, 2:00 PM)
Average83 °F77%29.94 "Hg
* Reported Nov 13 9:00 AM — Nov 28 9:00 AM, Kingstown, Weather by CustomWeather, © 2014

Note: Actual official high and low records may vary slightly from our data, if they occured in-between our weather recording intervals... More about our weather records

Advertising

Kingstown weather history for previous 24 hours

 ConditionsComfort  
Time TempWeatherWind HumidityBarometerVisibility
9:00 AM
Nov 28
86 °FPassing clouds.8 mph75%29.98 "HgN/A
8:00 AM82 °FPartly sunny.6 mph84%29.98 "HgN/A
7:00 AM79 °FScattered clouds.9 mph89%29.95 "HgN/A
6:00 AM79 °FPassing clouds.7 mph89%29.92 "HgN/A
11:00 PM
Nov 27
81 °FPassing clouds.6 mph84%29.95 "HgN/A
10:00 PM79 °FPassing clouds.6 mph89%29.95 "HgN/A
9:00 PM79 °FPassing clouds.8 mph89%29.95 "HgN/A
8:00 PM79 °FPassing clouds.7 mph89%29.95 "HgN/A
7:00 PM81 °FPassing clouds.No wind84%29.92 "HgN/A
6:00 PM81 °FPassing clouds.No wind84%29.92 "HgN/A
5:00 PM82 °FPartly sunny.10 mph79%29.89 "HgN/A
4:00 PM84 °FScattered clouds.10 mph74%29.89 "HgN/A
3:00 PM84 °FPassing clouds.10 mph74%29.89 "HgN/A
2:00 PM81 °FPartly sunny.No wind84%29.92 "HgN/A
1:00 PM77 °FSprinkles. Partly sunny.6 mph94%29.95 "HgN/A
12:00 PM82 °FScattered showers. Partly sunny.13 mph79%29.95 "Hg4 mi
11:00 AM84 °FScattered clouds.12 mph79%29.98 "HgN/A
10:00 AM84 °FScattered clouds.12 mph70%29.98 "HgN/A
Weather by CustomWeather, © 2014

See weather overviewHow to use our weather pages